Location: Ch�tillon
(48.8024°N, 2.2935°E)
Time: 16:24:20
(UTC+00:00)

CAS-4A - Pass Details

Date: 10 July 2022
Orbit: 521 x 536 km, 43.0° (Epoch: 19 August)

Event Time Altitude Azimuth Distance (km) Brightness Sun altitude
Exits shadow 01:47:11 28° 206° (SSW) 1,004 ? -14.7°
Maximum altitude 01:47:36 28° 194° (SSW) 989 ? -14.7°
Drops below altitude 10° 01:51:05 10° 134° (SE) 1,755 ? -14.5°
Sets 01:53:30 0° 123° (ESE) 2,645 ? -14.3°
